Location: Domont
(49.0278°N, 2.3264°E)
Time: 03:50:15
(UTC+00:00)

Orbus 7S? - Pass Details

Date: 05 June 2022
Orbit: 345 x 6369 km, 56.9° (Epoch: 01 July)

Event Time Altitude Azimuth Distance (km) Brightness Sun altitude
Exits shadow 21:05:40 - 177° (S) 4,146 7.3 -9.6°
Reaches altitude 10° 21:07:15 10° 171° (S) 3,814 7.0 -9.8°
Maximum altitude 21:17:03 40° 105° (ESE) 3,677 7.1 -10.7°
Drops below altitude 10° 21:39:45 10° 48° (NE) 8,618 9.5 -12.8°
Sets 21:48:46 0° 44° (NE) 10,391 10.0 -13.5°
